Weather Roundup
Issued by NWS Chicago, IL

Home | Current Version | Previous Version | Text Only | Print | Product List | Glossary Off
Versions: 1 2 3 4 5 6 7 8 9 10 11 12 13 14 15 16 17 18 19 20 21 22 23 24 25 26 27 28 29 30 31 32 33 34 35 36 37 38 39 40 41 42 43 44 45 46 47 48 49 50

000
NZUS59 KLOT 270208
HRRLOT

CHICAGO AREA WEATHER ROUNDUP
NATIONAL WEATHER SERVICE CHICAGO/ROMEOVILLE IL
900 PM CDT FRI AUG 26 2016

NOTE: "FAIR" INDICATES FEW OR NO CLOUDS BELOW 12,000 FEET WITH NO
SIGNIFICANT WEATHER AND/OR OBSTRUCTIONS TO VISIBILITY.

* THESE STATIONS ARE NOT UNDER NWS QUALITY CONTROL. THEY ALSO MAY NOT
  REPORT WEATHER SUCH AS PRECIPITATION OR FOG.

ILZ005-006-012>014-019>023-270300-
NORTHEAST ILLINOIS

CITY           SKY/WX    TMP DP  RH WIND       PRES   REMARKS
OHARE          MOCLDY    71  62  73 NE8       30.13R
MIDWAY         CLOUDY    74  64  71 E9        30.13R
AURORA         MOCLDY    73  63  70 E6        30.12S
LANSING*       CLOUDY    72  67  84 NE5       30.13S
JOLIET*        MOCLDY    74  67  78 NE9       30.11F
WAUKEGAN       CLOUDY    67  62  84 E5        30.15R
DUPAGE AIRPORT CLOUDY    72  60  66 E7        30.13R
WHEELING       PTCLDY    70  62  76 E3        30.15R
KANKAKEE*      CLOUDY    72  69  88 E5        30.12F
MORRIS*        CLOUDY    73  67  81 E6        30.09F
LEWIS AIRPORT* CLOUDY    72  67  85 E8        30.12S
NORTHERLY ISL    N/A     72  64  76 NE9         N/A
$$

WIZ051-052-058>065-066-070>072-270300-
SOUTHEAST WISCONSIN

CITY           SKY/WX    TMP DP  RH WIND       PRES   REMARKS
MILWAUKEE      CLOUDY    69  60  73 E3        30.17R
KENOSHA*       CLOUDY    67  61  81 E6        30.16R
RACINE*        CLOUDY    69  58  67 MISG      30.17R
BURLINGTON     CLOUDY    66  59  79 NE3       30.16S
WAUKESHA       CLEAR     66  55  68 E6        30.18R
$$

INZ001>003-010>013-019-020-270300-
NORTHWEST INDIANA

CITY           SKY/WX    TMP DP  RH WIND       PRES   REMARKS
GARY*          PTCLDY    73  66  78 E10       30.14S
MICHIGAN CITY* NOT AVBL
RENSSELAER*    NOT AVBL
VALPARAISO     LGT RAIN  70  65  84 CALM      30.13F
$$

LMZ740>746-270300-
SOUTHERN LAKE MICHIGAN

STATION/POSITION TIME  SKY/WX   TEMP WIND        PRES    VSBY
                                AIR  DIR/SP/G
                 (UTC)          (F)  (DEG/KT/KT) (MB)    (MI)
HARRISON CRIB    0100            73   60/ 13/ 14   N/A
BURNHAM HARBOR   0200            72   40/  6/  9   N/A
CALUMET HARBOR   0100            71   50/  6/  8   N/A
BURNS HARBOR     0102            73   60/ 11/ 16 1020.7R
MICHIGAN CITY    0100            73   30/ 14/ 15   N/A
$$

ABBREVIATIONS USED IN REMARKS
   TC - TEMPERATURE IN CELSIUS
  WCI - WIND CHILL INDEX
   HX - HEAT INDEX
  VSB - VISIBILITY
$$



USA.gov is the U.S. government's official web portal to all federal, state and local government web resources and services.